Location: Home
(42.5358°N, 72.7383°W)
Time: 04:14:09
(UTC-04:00)

Vanguard 1 - Pass Details

Date: 04 June 2022
Orbit: 649 x 3832 km, 34.2° (Epoch: 24 June)

Event Time Altitude Azimuth Distance (km) Brightness Sun altitude
Rises 03:52:11 0° 273° (W) 5,478 13.5 -12.6°
Reaches altitude 10° 03:55:14 10° 269° (W) 4,821 13.2 -12.2°
Maximum altitude 04:09:49 56° 196° (SSW) 3,612 12.6 -10.3°
Drops below altitude 10° 04:31:52 10° 126° (SE) 6,934 14.6 -7.2°
Sets 04:37:26 0° 123° (ESE) 7,922 14.9 -6.5°
